Location: Holyhead Bay
(53.3667°N, 4.6667°W)
Time: 22:28:41
(UTC+00:00)

Cosmos 1408 Rocket - Pass Details

Date: 17 April 2021
Orbit: 601 x 631 km, 82.6° (Epoch: 16 May)

Event Time Altitude Azimuth Distance (km) Brightness Sun altitude
Rises 21:42:20 0° 353° (N) 2,866 7.9 -17.8°
Reaches altitude 10° 21:44:41 10° 1° (N) 1,959 6.8 -18.0°
Maximum altitude 21:48:46 39° 72° (ENE) 909 4.2 -18.4°
Enters shadow 21:49:43 34° 103° (ESE) 997 4.2 -18.5°
